• Join FlightAware (Why Join?)
  • Login
  • US Flag 
10:11AM EST


 

Airport Tracker/Info


-or-


 

Live Flight TrackerFlight Track Log ✈ UAL1402 ✈ 25-May-2013 ✈ KLAX - KIAD

Flight Track Log - Related Links

Times and Time Zones

All times are in EDT time to prevent confusion due to time zone crossing. See the UAL1402 flight status page for this flight to view local times or setup timezone preferences in your user account.

Time Position Orientation Groundspeed Altitude Reporting Facility
EDT Latitude Longitude Course Direction KTS MPH feet Rate Location/Type
02:54AM 33.9340 -118.4370 262° West 183 211 1,300  Level FlightAware
02:54AM 33.9270 -118.4600 250° West 221 254 1,700 1,980 Climbing FlightAware
02:54AM 33.9060 -118.4870 227° Southwest 235 270 2,900 2,640 Climbing FlightAware
02:55AM 33.8980 -118.4910 203° Southwest 236 272 3,300 2,100 Climbing FlightAware
02:55AM 33.8770 -118.4960 191° South 254 292 3,900 2,340 Climbing FlightAware
02:55AM 33.8420 -118.5020 188° South 275 316 5,200 3,000 Climbing FlightAware
02:56AM 33.8030 -118.5070 186° South 279 321 6,800 3,180 Climbing FlightAware
02:56AM 33.7690 -118.5110 186° South 279 321 8,200 3,000 Climbing FlightAware
02:57AM 33.7370 -118.5160 187° South 283 326 9,400 2,700 Climbing FlightAware
02:57AM 33.7000 -118.5010 161° South 301 346 10,700 2,400 Climbing FlightAware
02:57AM 33.6870 -118.4850 134° Southeast 310 357 11,200 2,400 Climbing FlightAware
02:58AM 33.6780 -118.4570 111° Southeast 318 366 11,900 1,980 Climbing FlightAware
02:58AM 33.6580 -118.3880 109° East 344 396 13,100 1,680 Climbing FlightAware
02:59AM 33.6440 -118.3010 101° East 378 435 14,300 1,920 Climbing FlightAware
03:00AM 33.6450 -118.1800 89° East 396 456 16,300 2,160 Climbing FlightAware
03:01AM 33.6440 -118.0910 91° East 404 465 17,800 2,100 Climbing FlightAware
03:01AM 33.6440 -118.0070 90° East 415 478 19,100 1,740 Climbing FlightAware
03:02AM 33.6440 -117.8970 90° East 434 499 20,300 1,800 Climbing FlightAware
03:03AM 33.6440 -117.7960 90° East 441 507 21,700 1,920 Climbing FlightAware
03:04AM 33.6440 -117.6870 90° East 445 512 23,100 1,620 Climbing FlightAware
03:04AM 33.6430 -117.5870 91° East 461 531 24,000 1,200 Climbing FlightAware
03:05AM 33.6430 -117.4870 90° East 474 545 24,800 1,320 Climbing FlightAware
03:06AM 33.6420 -117.3610 91° East 485 558 25,900 1,500 Climbing FlightAware
03:06AM 33.6410 -117.2530 91° East 491 565 26,900 1,380 Climbing FlightAware
03:07AM 33.6470 -117.1340 87° East 499 574 27,900 1,260 Climbing FlightAware
03:08AM 33.6740 -117.0270 73° East 506 582 28,700 1,080 Climbing FlightAware
03:08AM 33.7050 -116.9250 70° East 513 590 29,400 960 Climbing FlightAware
03:09AM 33.7420 -116.8000 70° East 522 601 30,100 900 Climbing FlightAware
03:10AM 33.7780 -116.6790 70° East 529 609 30,800 1,020 Climbing FlightAware
03:10AM 33.8080 -116.5760 71° East 530 610 31,500 960 Climbing FlightAware
03:11AM 33.8250 -116.5190 70° East 529 609 31,900 240 Climbing FlightAware
03:12AM 33.8620 -116.3970 70° East 529 609 31,900 1,080 Level FlightAware
03:12AM 33.9080 -116.2360 71° East 533 613 33,600 1,680 Climbing FlightAware
03:13AM 33.9440 -116.1130 71° East 534 615 34,300 1,020 Climbing FlightAware
03:14AM 33.9740 -116.0050 71° East 532 612 35,000 480 Climbing FlightAware
03:15AM 34.0110 -115.8770 71° East 534 615 35,000  Level FlightAware
03:15AM 34.0520 -115.7330 71° East 536 617 35,000  Level FlightAware
03:16AM 34.0800 -115.6350 71° East 537 618 35,000  Level FlightAware
03:17AM 34.1200 -115.4910 71° East 541 623 35,000  Level FlightAware
03:18AM 34.1560 -115.3610 71° East 540 621 35,000  Level FlightAware
03:18AM 34.1890 -115.2460 71° East 538 619 35,000  Level FlightAware
03:19AM 34.2230 -115.1240 71° East 538 619 35,000  Level FlightAware
03:20AM 34.2520 -115.0180 72° East 539 620 35,000  Level FlightAware
03:21AM 34.2920 -114.8800 71° East 539 620 35,000  Level FlightAware
03:22AM 34.3410 -114.6970 72° East 538 619 35,000  Level FlightAware
03:23AM 34.3870 -114.5260 72° East 535 616 35,000  Level FlightAware
03:23AM 34.4170 -114.4110 72° East 533 613 35,000  Level FlightAware
03:24AM 34.4590 -114.2560 72° East 531 611 35,000  Level FlightAware
03:25AM 34.4850 -114.1580 72° East 531 611 35,000  Level FlightAware
03:26AM 34.5220 -114.0200 72° East 530 610 35,000  Level FlightAware
03:26AM 34.5570 -113.8920 72° East 529 609 35,000  Level FlightAware
03:27AM 34.5880 -113.7730 72° East 530 610 35,000  Level FlightAware
03:28AM 34.6180 -113.6590 72° East 531 611 35,000  Level FlightAware
03:28AM 34.6510 -113.5350 72° East 530 610 35,000  Level FlightAware
03:29AM 34.6760 -113.4390 72° East 529 609 35,000  Level FlightAware
03:30AM 34.7100 -113.3070 73° East 532 612 35,000  Level FlightAware
03:30AM 34.7400 -113.1890 73° East 532 612 35,000  Level FlightAware
03:31AM 34.7730 -113.0620 72° East 533 613 35,000  Level FlightAware
03:32AM 34.8030 -112.9450 73° East 535 616 35,000  Level FlightAware
03:33AM 34.8340 -112.8250 72° East 535 616 35,000  Level FlightAware
03:33AM 34.8650 -112.7030 73° East 534 615 35,000  Level FlightAware
03:34AM 34.8950 -112.5840 73° East 533 613 35,000  Level FlightAware
03:35AM 34.9240 -112.4680 73° East 533 613 35,000  Level FlightAware
03:35AM 34.9550 -112.3450 73° East 532 612 35,000  Level FlightAware
03:36AM 34.9860 -112.2220 73° East 530 610 35,000  Level FlightAware
03:37AM 35.0160 -112.0980 74° East 529 609 35,000  Level FlightAware
03:37AM 35.0450 -111.9830 73° East 528 608 35,000  Level FlightAware
03:38AM 35.0770 -111.8520 73° East 528 608 35,000  Level FlightAware
03:39AM 35.1050 -111.7400 73° East 526 605 35,000  Level FlightAware
03:40AM 35.1350 -111.6130 74° East 526 605 35,000  Level FlightAware
03:40AM 35.1620 -111.5060 73° East 528 608 35,000  Level FlightAware
03:41AM 35.1890 -111.3930 74° East 531 611 35,000  Level FlightAware
03:42AM 35.2210 -111.2590 74° East 532 612 35,000  Level FlightAware
03:42AM 35.2470 -111.1510 74° East 533 613 35,000  Level FlightAware
03:43AM 35.2790 -111.0170 74° East 530 610 35,000  Level FlightAware
03:44AM 35.3060 -110.9000 74° East 532 612 35,000  Level FlightAware
03:44AM 35.3360 -110.7750 74° East 532 612 35,000  Level FlightAware
03:45AM 35.3520 -110.7060 74° East 531 611 35,000  Level FlightAware
03:46AM 35.3820 -110.5750 74° East 530 610 35,000  Level FlightAware
03:46AM 35.4130 -110.4440 74° East 529 609 35,000  Level FlightAware
03:47AM 35.4370 -110.3410 74° East 529 609 35,000  Level FlightAware
03:48AM 35.4680 -110.2040 74° East 528 608 35,000  Level FlightAware
03:48AM 35.4940 -110.0900 74° East 528 608 35,000  Level FlightAware
03:49AM 35.5300 -109.9380 74° East 527 606 35,000  Level FlightAware
03:50AM 35.5510 -109.8450 74° East 527 606 35,000  Level FlightAware
03:51AM 35.5850 -109.6870 75° East 525 604 35,000  Level FlightAware
03:51AM 35.6090 -109.5820 74° East 524 603 35,000  Level FlightAware
03:52AM 35.6390 -109.4460 75° East 521 600 35,000  Level FlightAware
03:53AM 35.6610 -109.3540 74° East 521 600 35,000  Level FlightAware
03:54AM 35.6880 -109.2380 74° East 521 600 35,000  Level FlightAware
03:54AM 35.7090 -109.1480 74° East 521 600 35,000  Level FlightAware
03:56AM 35.7590 -108.9320 74° East 521 600 35,000  Level FlightAware
03:56AM 35.7790 -108.8450 74° East 521 600 35,000  Level FlightAware
03:57AM 35.8230 -108.6020 77° East 519 597 35,000  Level FlightAware
03:58AM 35.8460 -108.4990 75° East 519 597 35,000  Level FlightAware
03:58AM 35.8640 -108.4160 75° East 519 597 35,000  Level FlightAware
03:59AM 35.8890 -108.3000 75° East 519 597 35,000  Level FlightAware
04:00AM 35.9080 -108.2120 75° East 519 597 35,000  Level FlightAware
04:01AM 35.9490 -108.0060 76° East 518 596 35,000  Level FlightAware
04:01AM 35.9760 -107.8800 75° East 525 604 35,000 420 Level FlightAware
04:02AM 35.9990 -107.7680 76° East 524 603 35,600 900 Climbing FlightAware
04:03AM 36.0240 -107.6430 76° East 522 601 36,300 780 Climbing FlightAware
04:03AM 36.0500 -107.5160 76° East 521 600 36,800 480 Climbing FlightAware
04:04AM 36.0740 -107.4020 75° East 523 602 37,000 120 Climbing FlightAware
04:05AM 36.0980 -107.2840 76° East 524 603 37,000  Level FlightAware
04:05AM 36.1190 -107.1770 76° East 525 604 37,000  Level FlightAware
04:06AM 36.1480 -107.0350 76° East 525 604 37,000  Level FlightAware
04:07AM 36.1650 -106.9490 76° East 525 604 37,000  Level FlightAware
04:08AM 36.2020 -106.7620 76° East 517 595 37,000  Level FlightAware
04:08AM 36.2200 -106.6740 76° East 517 595 37,000  Level FlightAware
04:09AM 36.2440 -106.5540 76° East 517 595 37,000  Level FlightAware
04:10AM 36.2710 -106.4090 77° East 515 593 37,000  Level FlightAware
04:11AM 36.3050 -106.2390 76° East 515 593 37,000  Level FlightAware
04:12AM 36.3220 -106.1510 76° East 515 593 37,000  Level FlightAware
04:12AM 36.3460 -106.0340 76° East 515 593 37,000  Level FlightAware
04:13AM 36.3640 -105.9430 76° East 515 593 37,000  Level FlightAware
04:14AM 36.3870 -105.8290 76° East 515 593 37,000  Level FlightAware
04:14AM 36.4050 -105.7410 76° East 515 593 37,000  Level FlightAware
04:15AM 36.4280 -105.6240 76° East 515 593 37,000  Level FlightAware
04:16AM 36.4580 -105.4770 76° East 515 593 37,000  Level FlightAware
04:17AM 36.4750 -105.3890 76° East 515 593 37,000  Level FlightAware
04:17AM 36.4970 -105.2810 76° East 515 593 37,000  Level FlightAware
04:18AM 36.5140 -105.1930 76° East 515 593 37,000  Level FlightAware
04:19AM 36.5380 -105.0760 76° East 515 593 37,000  Level FlightAware
04:20AM 36.5600 -104.9640 76° East 515 593 37,000  Level FlightAware
04:21AM 36.6042 -104.6119 76° East 492 566 37,000  Level Albuquerque Center
04:22AM 36.6333 -104.4444 78° East 490 564 37,000  Level Albuquerque Center
04:23AM 36.6631 -104.2775 77° East 490 564 37,000  Level Albuquerque Center
04:24AM 36.6922 -104.1058 78° East 488 562 37,000  Level Albuquerque Center
04:25AM 36.7197 -103.9497 78° East 486 559 37,000  Level Albuquerque Center
04:26AM 36.7464 -103.7908 78° East 488 562 37,000  Level Albuquerque Center
04:27AM 36.7775 -103.6081 78° East 487 560 37,000  Level Albuquerque Center
04:28AM 36.8028 -103.4503 79° East 486 559 37,000  Level Albuquerque Center
04:29AM 36.8297 -103.2922 78° East 487 560 37,000  Level Albuquerque Center
04:30AM 36.8606 -103.1075 78° East 489 563 37,000  Level Albuquerque Center
04:31AM 36.8853 -102.9503 79° East 485 558 37,000  Level Albuquerque Center
04:32AM 36.9117 -102.7908 78° East 489 563 37,000  Level Albuquerque Center
04:33AM 36.9372 -102.6319 79° East 489 563 37,000  Level Albuquerque Center
04:34AM 36.9664 -102.4436 79° East 490 564 37,000  Level Albuquerque Center
04:35AM 36.9917 -102.2831 79° East 491 565 37,000  Level Albuquerque Center
04:36AM 37.0161 -102.1228 79° East 490 564 37,000  Level Albuquerque Center
04:36AM 37.0236 -102.0683 80° East 492 566 37,000  Level Kansas City Center
04:37AM 37.0489 -101.9086 79° East 491 565 37,000  Level Kansas City Center
04:38AM 37.0733 -101.7492 79° East 490 564 37,000  Level Kansas City Center
04:39AM 37.1003 -101.5653 80° East 485 558 37,000  Level Kansas City Center
04:40AM 37.1242 -101.4058 79° East 486 559 37,000  Level Kansas City Center
04:41AM 37.1475 -101.2469 80° East 487 560 37,000  Level Kansas City Center
04:42AM 37.1744 -101.0619 80° East 487 560 37,000  Level Kansas City Center
04:43AM 37.1967 -100.9036 80° East 486 559 37,000  Level Kansas City Center
04:44AM 37.2194 -100.7414 80° East 492 566 37,000  Level Kansas City Center
04:45AM 37.2472 -100.5533 79° East 495 570 37,000  Level Kansas City Center
04:46AM 37.2697 -100.3933 80° East 493 567 37,000  Level Kansas City Center
04:47AM 37.2922 -100.2328 80° East 491 565 37,000  Level Kansas City Center
04:48AM 37.3175 -100.0444 80° East 491 565 37,000  Level Kansas City Center
04:49AM 37.3389 -99.8817 81° East 493 567 37,000  Level Kansas City Center
04:50AM 37.3611 -99.7169 80° East 497 572 37,000  Level Kansas City Center
04:56AM 37.4940 -98.6830 80° East 499 574 37,000  Level FlightAware
04:57AM 37.5110 -98.5500 81° East 498 573 37,000  Level FlightAware
04:57AM 37.5290 -98.4030 81° East 494 568 37,000  Level FlightAware
04:58AM 37.5430 -98.2830 82° East 495 570 37,000  Level FlightAware
04:59AM 37.5580 -98.1620 81° East 494 568 37,000  Level FlightAware
04:59AM 37.5710 -98.0500 82° East 494 568 37,000  Level FlightAware
05:00AM 37.5860 -97.9180 82° East 494 568 37,000  Level FlightAware
05:01AM 37.6000 -97.7980 82° East 494 568 37,000  Level FlightAware
05:02AM 37.6130 -97.6860 82° East 493 567 37,000  Level FlightAware
05:02AM 37.6270 -97.5620 82° East 493 567 37,000  Level FlightAware
05:03AM 37.6410 -97.4400 82° East 492 566 37,000  Level FlightAware
05:04AM 37.6540 -97.3290 82° East 490 564 37,000  Level FlightAware
05:04AM 37.6680 -97.2040 82° East 491 565 37,000  Level FlightAware
05:05AM 37.6810 -97.0850 82° East 491 565 37,000  Level FlightAware
05:06AM 37.6930 -96.9710 82° East 491 565 37,000  Level FlightAware
05:07AM 37.7070 -96.8460 82° East 492 566 37,000  Level FlightAware
05:07AM 37.7190 -96.7270 83° East 496 571 37,000  Level FlightAware
05:08AM 37.7320 -96.6110 82° East 498 573 37,000  Level FlightAware
05:09AM 37.7450 -96.4860 82° East 500 575 37,000  Level FlightAware
05:09AM 37.7570 -96.3710 82° East 500 575 37,000  Level FlightAware
05:10AM 37.7690 -96.2530 83° East 500 575 37,000  Level FlightAware
05:11AM 37.7820 -96.1270 83° East 493 567 37,000  Level FlightAware
05:11AM 37.7930 -96.0140 83° East 487 560 37,000  Level FlightAware
05:12AM 37.8050 -95.8910 83° East 475 547 37,000  Level FlightAware
05:13AM 37.8160 -95.7810 83° East 469 540 37,000  Level FlightAware
05:14AM 37.8280 -95.6650 83° East 468 539 37,000  Level FlightAware
05:14AM 37.8390 -95.5510 83° East 467 537 37,000  Level FlightAware
05:15AM 37.8480 -95.4530 83° East 472 543 37,000  Level FlightAware
05:16AM 37.8570 -95.3600 83° East 479 551 37,000  Level FlightAware
05:16AM 37.8720 -95.1910 84° East 481 554 37,000  Level FlightAware
05:17AM 37.8820 -95.0850 83° East 481 554 37,000  Level FlightAware
05:18AM 37.8940 -94.9630 83° East 482 555 37,000  Level FlightAware
05:18AM 37.9040 -94.8480 84° East 482 555 37,000  Level FlightAware
05:19AM 37.9150 -94.7260 83° East 480 552 37,000  Level FlightAware
05:20AM 37.9250 -94.6150 83° East 480 552 37,000  Level FlightAware
05:21AM 37.9350 -94.4970 84° East 479 551 37,000  Level FlightAware
05:21AM 37.9450 -94.3830 84° East 477 549 37,000  Level FlightAware
05:22AM 37.9550 -94.2630 84° East 473 544 37,000  Level FlightAware
05:23AM 37.9650 -94.1490 84° East 471 542 37,000  Level FlightAware
05:23AM 37.9750 -94.0330 84° East 471 542 37,000  Level FlightAware
05:24AM 37.9850 -93.9140 84° East 471 542 37,000  Level FlightAware
05:25AM 37.9940 -93.7930 85° East 471 542 37,000  Level FlightAware
05:26AM 38.0090 -93.6120 84° East 472 543 37,000  Level FlightAware
05:27AM 38.0180 -93.4940 84° East 472 543 37,000  Level FlightAware
05:27AM 38.0270 -93.3800 84° East 471 542 37,000  Level FlightAware
05:28AM 38.0360 -93.2600 85° East 471 542 37,000  Level FlightAware
05:29AM 38.0450 -93.1520 84° East 470 541 37,000  Level FlightAware
05:29AM 38.0540 -93.0300 85° East 469 540 37,000  Level FlightAware
05:30AM 38.0610 -92.9370 85° East 468 539 37,000  Level FlightAware
05:31AM 38.0700 -92.8070 85° East 470 541 37,000  Level FlightAware
05:32AM 38.0780 -92.6900 85° East 471 542 37,000  Level FlightAware
05:32AM 38.0870 -92.5760 84° East 472 543 37,000  Level FlightAware
05:33AM 38.0950 -92.4590 85° East 474 545 37,000  Level FlightAware
05:34AM 38.1020 -92.3530 85° East 477 549 37,000  Level FlightAware
05:34AM 38.1110 -92.2240 85° East 479 551 37,000  Level FlightAware
05:35AM 38.1180 -92.1140 85° East 481 554 37,000  Level FlightAware
05:36AM 38.1280 -91.9650 85° East 481 554 37,000  Level FlightAware
05:37AM 38.1370 -91.8320 85° East 479 551 37,000  Level FlightAware
05:37AM 38.1440 -91.7260 85° East 479 551 37,000  Level FlightAware
05:38AM 38.1530 -91.5730 86° East 479 551 37,000  Level FlightAware
05:39AM 38.1610 -91.4410 86° East 478 550 37,000  Level FlightAware
05:40AM 38.1670 -91.3490 85° East 478 550 37,000  Level FlightAware
05:40AM 38.1750 -91.2370 85° East 478 550 37,000  Level FlightAware
05:41AM 38.1810 -91.1520 85° East 478 550 37,000  Level FlightAware
05:42AM 38.1880 -91.0420 85° East 478 550 37,000  Level FlightAware
05:42AM 38.1940 -90.9560 85° East 478 550 37,000  Level FlightAware
05:43AM 38.2030 -90.7380 87° East 482 555 37,000  Level FlightAware
05:44AM 38.2080 -90.6160 87° East 482 555 37,000  Level FlightAware
05:45AM 38.2150 -90.4920 86° East 483 556 37,000  Level FlightAware
05:46AM 38.2250 -90.2940 86° East 483 556 37,000  Level FlightAware
05:46AM 38.2310 -90.1830 86° East 483 556 37,000  Level FlightAware
05:47AM 38.2370 -90.0580 86° East 484 557 37,000  Level FlightAware
05:48AM 38.2430 -89.9390 86° East 485 558 37,000  Level FlightAware
05:49AM 38.2480 -89.8220 87° East 486 559 37,000  Level FlightAware
05:49AM 38.2540 -89.6960 86° East 485 558 37,000  Level FlightAware
05:50AM 38.2580 -89.6180 86° East 485 558 37,000  Level FlightAware
05:50AM 38.2630 -89.4930 87° East 485 558 37,000  Level FlightAware
05:51AM 38.2680 -89.3830 87° East 485 558 37,000  Level FlightAware
05:52AM 38.2730 -89.2580 87° East 485 558 37,000  Level FlightAware
05:52AM 38.2780 -89.1460 87° East 484 557 37,000  Level FlightAware
05:53AM 38.2830 -89.0260 87° East 484 557 37,000  Level FlightAware
05:54AM 38.2880 -88.9060 87° East 483 556 37,000  Level FlightAware
05:55AM 38.2920 -88.8020 87° East 482 555 37,000  Level FlightAware
05:56AM 38.3000 -88.5810 87° East 483 556 37,000  Level FlightAware
05:56AM 38.3040 -88.4700 87° East 484 557 37,000  Level FlightAware
05:57AM 38.3080 -88.3410 88° East 484 557 37,000  Level FlightAware
05:58AM 38.3120 -88.2290 87° East 483 556 37,000  Level FlightAware
05:59AM 38.3160 -88.1130 87° East 483 556 37,000  Level FlightAware
05:59AM 38.3200 -87.9950 87° East 483 556 37,000  Level FlightAware
06:00AM 38.3230 -87.8880 88° East 482 555 37,000  Level FlightAware
06:01AM 38.3270 -87.7520 88° East 482 555 37,000  Level FlightAware
06:01AM 38.3300 -87.6390 88° East 481 554 37,000  Level FlightAware
06:02AM 38.3330 -87.5250 88° East 481 554 37,000  Level FlightAware
06:03AM 38.3370 -87.4050 88° East 481 554 37,000  Level FlightAware
06:03AM 38.3400 -87.2820 88° East 482 555 37,000  Level FlightAware
06:04AM 38.3420 -87.1700 89° East 483 556 37,000  Level FlightAware
06:05AM 38.3460 -87.0340 88° East 484 557 37,000  Level FlightAware
06:06AM 38.3480 -86.9250 89° East 485 558 37,000  Level FlightAware
06:06AM 38.3510 -86.8040 88° East 486 559 37,000  Level FlightAware
06:07AM 38.3530 -86.6850 89° East 488 562 37,000  Level FlightAware
06:08AM 38.3550 -86.5810 89° East 489 563 37,000  Level FlightAware
06:08AM 38.3580 -86.4330 88° East 490 564 37,000  Level FlightAware
06:09AM 38.3600 -86.3190 89° East 491 565 37,000  Level FlightAware
06:10AM 38.3620 -86.2020 89° East 492 566 37,000  Level FlightAware
06:10AM 38.3640 -86.0870 89° East 493 567 37,000  Level FlightAware
06:11AM 38.3660 -85.9590 89° East 493 567 37,000  Level FlightAware
06:12AM 38.3670 -85.8360 89° East 493 567 37,000  Level FlightAware
06:13AM 38.3690 -85.7100 89° East 493 567 37,000  Level FlightAware
06:13AM 38.3700 -85.5940 89° East 493 567 37,000  Level FlightAware
06:14AM 38.3710 -85.4660 89° East 493 567 37,000  Level FlightAware
06:15AM 38.3730 -85.3490 89° East 493 567 37,000  Level FlightAware
06:15AM 38.3740 -85.2250 89° East 493 567 37,000  Level FlightAware
06:16AM 38.3740 -85.1090 90° East 493 567 37,000  Level FlightAware
06:17AM 38.3750 -84.9790 89° East 494 568 37,000  Level FlightAware
06:17AM 38.3760 -84.8640 89° East 494 568 37,000  Level FlightAware
06:18AM 38.3760 -84.7360 90° East 496 571 37,000  Level FlightAware
06:19AM 38.3770 -84.6200 89° East 497 572 37,000  Level FlightAware
06:20AM 38.3770 -84.5030 90° East 498 573 37,000  Level FlightAware
06:20AM 38.3780 -84.3530 89° East 499 574 37,000  Level FlightAware
06:21AM 38.3770 -84.1910 90° East 501 577 37,000  Level FlightAware
06:22AM 38.3770 -84.0730 90° East 502 578 37,000  Level FlightAware
06:23AM 38.3770 -83.9750 90° East 502 578 37,000  Level FlightAware
06:23AM 38.3770 -83.8540 90° East 502 578 37,000  Level FlightAware
06:24AM 38.3770 -83.7610 90° East 502 578 37,000  Level FlightAware
06:25AM 38.3770 -83.6400 90° East 502 578 37,000  Level FlightAware
06:25AM 38.3770 -83.5650 90° East 502 578 37,000  Level FlightAware
06:26AM 38.3731 -83.3408 91° East 504 580 37,000  Level FlightAware ADS-B
06:27AM 38.3719 -83.2018 91° East 504 580 37,000  Level FlightAware ADS-B
06:27AM 38.3710 -83.1113 91° East 505 581 37,000  Level FlightAware ADS-B
06:28AM 38.3695 -82.9667 91° East 506 582 37,000  Level FlightAware ADS-B
06:29AM 38.3684 -82.8635 91° East 507 583 37,000  Level FlightAware ADS-B
06:30AM 38.3660 -82.7040 91° East 509 586 37,000  Level FlightAware
06:30AM 38.3641 -82.5740 91° East 37,000  Level FlightAware ADS-B
06:30AM 38.3639 -82.5618 91° East 509 586 37,000  Level FlightAware ADS-B
06:31AM 38.3627 -82.4671 91° East 510 587 37,000  Level FlightAware ADS-B
06:32AM 38.3600 -82.3250 91° East 510 587 37,000  Level FlightAware
06:32AM 38.3580 -82.1940 91° East 511 588 37,000  Level FlightAware
06:33AM 38.3560 -82.0740 91° East 511 588 37,000  Level FlightAware
06:34AM 38.3534 -81.9534 92° East 511 588 37,000  Level FlightAware ADS-B
06:34AM 38.3510 -81.8350 91° East 510 587 37,000  Level FlightAware
06:35AM 38.3499 -81.7866 92° East 511 588 37,000  Level FlightAware ADS-B
06:35AM 38.3474 -81.6877 92° East 511 588 37,000  Level FlightAware ADS-B
06:36AM 38.3443 -81.5946 92° East 511 588 37,000  Level FlightAware ADS-B
06:37AM 38.3398 -81.4596 92° East 511 588 37,000  Level FlightAware ADS-B
06:37AM 38.3350 -81.3130 92° East 512 589 37,000  Level FlightAware
06:38AM 38.3310 -81.1900 92° East 514 592 37,000  Level FlightAware
06:39AM 38.3260 -81.0590 93° East 516 594 37,000  Level FlightAware
06:39AM 38.3220 -80.9370 92° East 518 596 37,000  Level FlightAware
06:40AM 38.3170 -80.8220 93° East 519 597 37,000  Level FlightAware
06:41AM 38.3120 -80.6730 92° East 520 598 37,000  Level FlightAware
06:42AM 38.3070 -80.5540 93° East 522 601 37,000  Level FlightAware
06:42AM 38.3120 -80.4180 87° East 515 593 37,000  Level FlightAware
06:43AM 38.3310 -80.3020 78° East 513 590 37,000 -540 Level FlightAware
06:44AM 38.3530 -80.1790 77° East 509 586 36,300 -1,140 Descending FlightAware
06:44AM 38.3760 -80.0650 76° East 503 579 35,500 -540 Descending FlightAware
06:45AM 38.4060 -79.9400 73° East 503 579 35,500 -3,000 Level FlightAware
06:46AM 38.4480 -79.7550 74° East 498 573 30,200 -4,260 Descending FlightAware
06:47AM 38.4730 -79.6450 74° East 488 562 28,700 -2,340 Descending FlightAware
06:48AM 38.5020 -79.5140 74° East 471 542 26,800 -2,580 Descending FlightAware
06:48AM 38.5260 -79.4110 73° East 453 521 25,000 -2,400 Descending FlightAware
06:49AM 38.5460 -79.2960 77° East 431 496 23,500 -2,040 Descending FlightAware
06:50AM 38.5630 -79.1990 77° East 422 486 22,200 -2,040 Descending FlightAware
06:50AM 38.5790 -79.1020 78° East 415 478 20,800 -2,040 Descending FlightAware
06:51AM 38.5970 -78.9930 78° East 401 461 19,300 -1,980 Descending FlightAware
06:52AM 38.6120 -78.9020 78° East 397 457 18,000 -2,040 Descending FlightAware
06:52AM 38.6280 -78.8100 77° East 388 447 16,600 -2,100 Descending FlightAware
06:53AM 38.6510 -78.7160 73° East 383 441 15,100 -2,100 Descending FlightAware
06:54AM 38.6760 -78.6110 73° East 365 420 13,400 -1,980 Descending FlightAware
06:55AM 38.6980 -78.5150 74° East 354 407 12,000 -1,260 Descending FlightAware
06:56AM 38.7240 -78.3510 78° East 314 361 10,700 -1,140 Descending FlightAware
06:57AM 38.7210 -78.2990 94° East 314 361 9,900 -1,320 Descending FlightAware
06:57AM 38.7130 -78.2490 102° East 306 352 9,500 -1,200 Descending FlightAware
06:57AM 38.7090 -78.2280 104° East 305 351 9,100 -1,500 Descending FlightAware
06:58AM 38.7010 -78.1800 102° East 300 345 8,500 -1,320 Descending FlightAware
06:58AM 38.6960 -78.1470 101° East 298 343 8,100 -1,740 Descending FlightAware
06:59AM 38.6870 -78.1000 104° East 305 351 7,200 -1,620 Descending FlightAware
06:59AM 38.6770 -78.0500 104° East 303 349 6,600 -1,320 Descending FlightAware
06:59AM 38.6690 -78.0080 104° East 291 335 6,100 -1,260 Descending FlightAware
07:00AM 38.6620 -77.9680 103° East 290 334 5,600 -1,440 Descending FlightAware
07:00AM 38.6520 -77.9160 104° East 290 334 4,800 -900 Descending FlightAware
07:01AM 38.6430 -77.8680 103° East 288 331 4,700 -120 Descending FlightAware
07:01AM 38.6330 -77.8200 105° East 285 328 4,700  Level FlightAware
07:02AM 38.6280 -77.7940 104° East 283 326 4,700  Level FlightAware
07:02AM 38.6190 -77.7480 104° East 282 325 4,700  Level FlightAware
07:02AM 38.6120 -77.7130 104° East 276 318 4,700  Level FlightAware
07:03AM 38.6030 -77.6680 104° East 250 288 4,700  Level FlightAware
07:03AM 38.5990 -77.6450 103° East 246 283 4,700  Level FlightAware
07:04AM 38.5910 -77.6050 104° East 244 281 4,700  Level FlightAware
07:04AM 38.5830 -77.5670 105° East 240 276 4,700  Level FlightAware
07:05AM 38.5930 -77.5320 70° East 215 247 4,700  Level FlightAware
07:05AM 38.6100 -77.5170 35° Northeast 214 246 4,700  Level FlightAware
07:06AM 38.6120 -77.5150 38° Northeast 214 246 4,700  Level FlightAware
07:06AM 38.6740 -77.4650 32° Northeast 204 235 4,700  Level FlightAware
07:07AM 38.6900 -77.4640 North 201 231 4,700 -540 Level FlightAware
07:07AM 38.7250 -77.4630 North 185 213 4,200 -840 Descending FlightAware
07:08AM 38.7470 -77.4630 360° North 181 208 3,800 -1,020 Descending FlightAware
07:08AM 38.7720 -77.4620 North 181 208 3,300 -1,020 Descending FlightAware
07:09AM 38.7920 -77.4620 360° North 164 189 2,900 -900 Descending FlightAware
07:09AM 38.8030 -77.4620 360° North 162 186 2,700 -780 Descending FlightAware
07:09AM 38.8210 -77.4620 360° North 159 183 2,400 -900 Descending FlightAware
07:10AM 38.8420 -77.4610 North 154 177 1,900 -780 Descending FlightAware
07:11AM 38.8980 -77.4600 North 133 153 800 -540 Descending FlightAware
07:12AM 38.9130 -77.4600 360° North 133 153 800  Level FlightAware